Regional Weather Roundup
Issued by NWS

Home | Current Version | Previous Version | Text Only | Print | Product List | Glossary Off
Versions: 1 2 3 4 5 6 7 8 9 10 11 12 13 14 15 16 17 18 19 20 21 22 23 24 25 26 27 28 29 30 31 32 33 34 35 36 37 38 39 40 41 42 43 44 45 46 47 48 49 50

000
ASUS43 KOAX 160702
RWRNE

WEATHER ROUNDUP FOR NEBRASKA
NATIONAL WEATHER SERVICE OMAHA NE
100 AM CST MON JAN 16 2017

NOTES: SATELLITE DATA IS BEING USED TO AUGMENT CLOUD COVER ABOVE
       12000 FEET.
       "FAIR" INDICATES FEW OR NO CLOUDS BELOW 12,000 FEET WITH NO
       SIGNIFICANT WEATHER AND/OR OBSTRUCTIONS TO VISIBILITY.

  * THESE STATIONS DO NOT REPORT WEATHER SUCH AS RAIN...SNOW OR FOG.

NEZ001>004-019>022-054>056-160800-
NEBRASKA PANHANDLE

CITY           SKY/WX    TMP DP  RH WIND       PRES   REMARKS
SCOTTSBLUFF    CLOUDY    32  27  81 W3        29.99F
ALLIANCE       CLOUDY    31  26  82 N6        29.98F WCI  25
CHADRON        CLOUDY    23  20  88 W5        30.03S WCI  17
KIMBALL        LGT SNOW  32  29  90 N8        29.97S WCI  24
SIDNEY         CLOUDY    31  29  92 N8        29.97S WCI  23
$$

NEZ057>060-069>072-079>082-160800-
SOUTHWEST NEBRASKA

CITY           SKY/WX    TMP DP  RH WIND       PRES   REMARKS
NORTH PLATTE   CLOUDY    32  30  92 CALM      30.02R
IMPERIAL       CLOUDY    30  29  96 CALM      29.99F FOG
LEXINGTON      MIX PCPN  31  30  94 CALM      30.03F
MCCOOK         CLOUDY    30  30 100 NE5       30.00F WCI  25
OGALLALA       MIX PCPN  33  32  96 CALM      30.00S
$$

NEZ005>010-023>029-035>040-094-160800-
NORTH CENTRAL NEBRASKA

CITY           SKY/WX    TMP DP  RH WIND       PRES   REMARKS
VALENTINE      CLOUDY    28  22  78 CALM      30.03S
AINSWORTH      CLOUDY    31  26  82 CALM      30.02F
BROKEN BOW     FRZ RAIN  31  31 100 E5        30.02F FOG     WCI  26
O`NEILL        CLOUDY    31  30  96 CALM      30.06F
ORD            MIX PCPN  31  28  89 SE5       30.05S WCI  26
THEDFORD       DRIZZLE   32  32  99 CALM      30.02S
$$

NEZ041-046>049-061>064-073>077-083>087-160800-
SOUTH CENTRAL NEBRASKA

CITY           SKY/WX    TMP DP  RH WIND       PRES   REMARKS
GRAND ISLAND   FRZ RAIN  30  30 100 E6        30.07S FOG     WCI  24
AURORA         MIX PCPN  31  30  97 E5        30.07F WCI  26
HASTINGS       FRZ RAIN  31  29  92 E3        30.06S FOG
HEBRON         CLOUDY    31  31  99 E3        30.07F FOG
HOLDREGE       CLOUDY    31  30  96 E6        30.02F FOG     WCI  25
KEARNEY *      CLOUDY    30  28  93 NE5       30.05S WCI  25
YORK           CLOUDY    32  32 100 CALM      30.08F FOG
$$

NEZ011>018-030>034-042>045-160800-
NORTHEAST NEBRASKA

CITY           SKY/WX    TMP DP  RH WIND       PRES   REMARKS
NORFOLK        MIX PCPN  29  28  96 E5        30.09S FOG     WCI  24
ALBION         MIX PCPN  31  29  94 SE6       30.08S WCI  25
BLAIR          MIX PCPN  32  32  99 E3        30.11F
FREMONT        CLOUDY    32  32 100 CALM      30.13S FOG
TEKAMAH        FRZ RAIN  32  30  92 NE5       30.13F FOG     WCI  27
WAYNE          MIX PCPN  30  29  96 CALM      30.12S
$$

NEZ050>053-065>068-078-088>093-160800-
SOUTHEAST NEBRASKA

CITY           SKY/WX    TMP DP  RH WIND       PRES   REMARKS
LINCOLN        CLOUDY    32  31  96 E6        30.11F WCI  26
OMAHA EPPLEY   FRZ RAIN  32  29  88 E3        30.13F FOG
BEATRICE       CLOUDY    32  32  99 E5        30.08S WCI  27
FALLS CITY     CLOUDY    32  31  96 E7        30.08F FOG     WCI  26
NEBRASKA CITY  CLOUDY    32  32 100 E5        30.10F FOG     WCI  27
PLATTSMOUTH    MIX PCPN  32  30  92 E3        30.11F
$$

NEZ044-045-051>053-067-160800-
OMAHA AREA

CITY           SKY/WX    TMP DP  RH WIND       PRES   REMARKS
OMAHA EPPLEY   FRZ RAIN  32  29  88 E3        30.13F FOG
BLAIR          MIX PCPN  32  32  99 E3        30.11F
FREMONT        CLOUDY    32  32 100 CALM      30.13S FOG
MILLARD        DRIZZLE   34  32  94 CALM      30.13F
OFFUTT AFB     FRZ DRZL  32  32 100 CALM      30.12F FOG
PLATTSMOUTH    MIX PCPN  32  30  92 E3        30.11F
WAHOO          MIX PCPN  32  31  96 NE6       30.11F WCI  26
$$




USA.gov is the U.S. government's official web portal to all federal, state and local government web resources and services.